"Period start","avg(HW err(1)/warn(2) (#))","avg(Visibility (m))","avg(Weather code (#))","avg(Precip intensity (mm/h))","min(HW err(1)/warn(2) (#))","max(HW err(1)/warn(2) (#))","std(HW err(1)/warn(2) (#))","med(HW err(1)/warn(2) (#))","min(Visibility (m))","max(Visibility (m))","std(Visibility (m))","med(Visibility (m))","min(Weather code (#))","max(Weather code (#))","std(Weather code (#))","med(Weather code (#))","min(Precip intensity (mm/h))","max(Precip intensity (mm/h))","std(Precip intensity (mm/h))","med(Precip intensity (mm/h))"
2016-03-23 00:00:00,2,47521,0,0.00,2,2,0,2,37707,50000,3947,49720,0,0,0,0,0.00,0.00,0.00,0.00
2016-03-23 00:10:00,2,47879,0,0.00,2,2,0,2,41740,50000,3090,50000,0,0,0,0,0.00,0.00,0.00,0.00
2016-03-23 00:20:00,2,18143,51,0.07,2,2,0,2,7694,50000,13472,11513,0,77,33,71,0.00,0.25,0.08,0.05
2016-03-23 00:30:00,2,16038,60,0.01,2,2,0,2,9595,26885,5339,15337,0,78,30,74,0.00,0.05,0.02,0.00
2016-03-23 00:40:00,2,37216,0,0.00,2,2,0,2,33054,46711,3974,35770,0,0,0,0,0.00,0.00,0.00,0.00
2016-03-23 00:50:00,2,42975,0,0.00,2,2,0,2,35968,50000,4503,44254,0,0,0,0,0.00,0.00,0.00,0.00
2016-03-23 01:00:00,2,42964,0,0.00,2,2,0,2,31879,49435,5727,45180,0,0,0,0,0.00,0.00,0.00,0.00
2016-03-23 01:10:00,2,30710,8,0.02,2,2,0,2,15761,46031,9799,30434,0,40,16,0,0.00,0.10,0.03,0.00
2016-03-23 01:20:00,2,27994,64,0.02,2,2,0,2,17462,34204,5819,29540,41,77,14,71,0.00,0.05,0.02,0.00
2016-03-23 01:30:00,2,11222,66,0.28,2,2,0,2,9013,18723,2656,10700,54,71,8,71,0.10,0.45,0.10,0.28
2016-03-23 01:40:00,2,18130,70,0.07,2,2,0,2,10152,37583,8723,13718,64,74,3,71,0.00,0.25,0.07,0.05
2016-03-23 01:50:00,2,40321,16,0.00,2,2,0,2,28729,49379,7459,41460,0,54,25,0,0.00,0.00,0.00,0.00
2016-03-23 02:00:00,2,22618,50,0.16,2,2,0,2,11789,31333,6348,23638,0,71,33,71,0.00,0.75,0.24,0.03
2016-03-23 02:10:00,2,7575,71,0.76,2,2,0,2,4783,13707,2366,7472,71,71,0,71,0.25,1.75,0.42,0.73
2016-03-23 02:20:00,2,6657,71,0.83,2,2,0,2,5035,7868,863,6624,71,71,0,71,0.40,1.50,0.39,0.78
2016-03-23 02:30:00,2,4616,71,1.52,2,2,0,2,3193,6411,1063,4241,71,71,0,71,0.75,2.35,0.50,1.62
2016-03-23 02:40:00,2,3878,71,2.35,2,2,0,2,3088,5589,677,3736,71,71,0,71,1.60,3.00,0.47,2.42
2016-03-23 02:50:00,2,3676,71,2.48,2,2,0,2,3317,4209,307,3701,71,71,0,71,1.35,3.75,0.67,2.70
2016-03-23 03:00:00,2,3621,71,2.42,2,2,0,2,2826,4854,511,3602,71,71,0,71,1.30,2.90,0.41,2.50
2016-03-23 03:10:00,2,5720,71,1.35,2,2,0,2,3381,8422,1564,6214,71,71,0,71,0.50,3.00,0.77,1.05
2016-03-23 03:20:00,2,6258,71,1.01,2,2,0,2,4054,9872,1517,6068,71,71,0,71,0.50,1.85,0.39,0.93
2016-03-23 03:30:00,2,11833,71,0.37,2,2,0,2,8608,19471,3065,11531,71,71,0,71,0.05,0.85,0.25,0.30
2016-03-23 03:40:00,2,23200,70,0.17,2,2,0,2,15211,31806,5626,23240,64,74,3,71,0.00,0.50,0.16,0.12
2016-03-23 03:50:00,2,17986,74,0.26,2,2,0,2,15364,20604,1729,17500,64,77,4,77,0.10,0.55,0.13,0.25
2016-03-23 04:00:00,2,12553,75,0.42,2,2,0,2,6300,16699,3261,13222,71,77,3,77,0.10,0.95,0.25,0.30
2016-03-23 04:10:00,2,10226,71,0.44,2,2,0,2,5843,15451,3407,8593,71,71,0,71,0.20,0.85,0.18,0.43
2016-03-23 04:20:00,2,6670,71,1.01,2,2,0,2,4369,8751,1489,6642,71,71,0,71,0.35,1.85,0.43,1.05
2016-03-23 04:30:00,2,10270,71,0.52,2,2,0,2,8006,12479,1379,10232,71,71,0,71,0.15,0.95,0.29,0.55
2016-03-23 04:40:00,2,15065,73,0.09,2,2,0,2,11961,24737,3811,13590,71,77,3,71,0.00,0.20,0.08,0.05
2016-03-23 04:50:00,2,10766,72,0.29,2,2,0,2,6434,14634,2359,10576,71,74,1,71,0.10,0.65,0.18,0.23
2016-03-23 05:00:00,2,5612,71,0.74,2,2,0,2,4774,6833,543,5481,71,71,0,71,0.35,1.55,0.34,0.70
2016-03-23 05:10:00,2,3767,71,1.66,2,2,0,2,2790,5168,751,3592,71,71,0,71,0.80,2.90,0.55,1.65
2016-03-23 05:20:00,2,2618,71,2.33,2,2,0,2,1882,4098,628,2427,71,71,0,71,1.40,3.10,0.54,2.38
2016-03-23 05:30:00,2,2774,71,2.74,2,2,0,2,1957,3564,479,2848,71,71,0,71,1.25,4.15,0.70,2.80
2016-03-23 05:40:00,2,3949,71,1.87,2,2,0,2,2418,5130,827,4078,71,71,0,71,0.80,3.45,0.72,1.73
2016-03-23 05:50:00,2,5154,71,1.29,2,2,0,2,3579,7026,806,5150,71,71,0,71,0.65,1.90,0.36,1.30
2016-03-23 06:00:00,2,4374,71,1.81,2,2,0,2,3397,5488,708,4108,71,71,0,71,1.20,2.70,0.50,1.75
2016-03-23 06:10:00,2,5806,71,1.25,2,2,0,2,4636,8152,1094,5688,71,71,0,71,0.65,2.15,0.47,1.18
2016-03-23 06:20:00,2,8179,71,0.71,2,2,0,2,6377,10356,1302,7923,71,71,0,71,0.20,1.50,0.44,0.57
2016-03-23 06:30:00,2,17148,64,0.12,2,2,0,2,11894,27783,4807,16616,41,74,13,71,0.00,0.35,0.10,0.10
2016-03-23 06:40:00,2,33142,27,0.01,2,2,0,2,22730,40608,5703,32903,0,54,27,27,0.00,0.05,0.02,0.00
2016-03-23 06:50:00,2,45796,0,0.00,2,2,0,2,35546,50000,4490,47226,0,0,0,0,0.00,0.00,0.00,0.00
2016-03-23 07:00:00,2,8563,58,0.74,2,2,0,2,2664,30717,8755,4762,0,71,23,71,0.00,1.45,0.44,0.77
2016-03-23 07:10:00,2,8254,71,0.35,2,2,0,2,5378,11654,2032,7674,71,71,0,71,0.10,0.70,0.22,0.30
2016-03-23 07:20:00,2,15013,71,0.10,2,2,0,2,9001,26265,5027,14034,71,71,0,71,0.00,0.25,0.09,0.05
2016-03-23 07:30:00,2,40976,71,0.03,2,2,0,2,23504,48133,8565,43602,64,77,5,71,0.00,0.10,0.03,0.00
2016-03-23 07:40:00,2,40378,0,0.00,2,2,0,2,14737,50000,12212,45786,0,0,0,0,0.00,0.00,0.00,0.00
2016-03-23 07:50:00,2,48362,0,0.00,2,2,0,2,43834,50000,2227,50000,0,0,0,0,0.00,0.00,0.00,0.00
2016-03-23 08:00:00,2,48292,0,0.00,2,2,0,2,44752,50000,1797,48830,0,0,0,0,0.00,0.00,0.00,0.00
2016-03-23 08:10:00,2,49256,0,0.00,2,2,0,2,46738,50000,1132,50000,0,0,0,0,0.00,0.00,0.00,0.00
2016-03-23 08:20:00,2,49243,0,0.00,2,2,0,2,46265,50000,1180,50000,0,0,0,0,0.00,0.00,0.00,0.00
2016-03-23 08:30:00,2,49167,0,0.00,2,2,0,2,46523,50000,1117,49788,0,0,0,0,0.00,0.00,0.00,0.00
2016-03-23 08:40:00,2,48844,0,0.00,2,2,0,2,45434,50000,1388,49384,0,0,0,0,0.00,0.00,0.00,0.00
2016-03-23 08:50:00,2,48303,0,0.00,2,2,0,2,44739,50000,1976,49546,0,0,0,0,0.00,0.00,0.00,0.00
2016-03-23 09:00:00,2,49190,0,0.00,2,2,0,2,47074,50000,1089,50000,0,0,0,0,0.00,0.00,0.00,0.00
2016-03-23 09:10:00,2,49554,0,0.00,2,2,0,2,46729,50000,1007,50000,0,0,0,0,0.00,0.00,0.00,0.00
2016-03-23 09:20:00,2,50000,0,0.00,2,2,0,2,50000,50000,0,50000,0,0,0,0,0.00,0.00,0.00,0.00
2016-03-23 09:30:00,2,49776,0,0.00,2,2,0,2,48564,50000,469,50000,0,0,0,0,0.00,0.00,0.00,0.00
2016-03-23 09:40:00,2,49983,0,0.00,2,2,0,2,49832,50000,50,50000,0,0,0,0,0.00,0.00,0.00,0.00
2016-03-23 09:50:00,2,42231,0,0.00,2,2,0,2,11810,50000,12927,50000,0,0,0,0,0.00,0.00,0.00,0.00
2016-03-23 10:00:00,2,50000,0,0.00,2,2,0,2,50000,50000,0,50000,0,0,0,0,0.00,0.00,0.00,0.00
2016-03-23 10:10:00,2,48763,0,0.00,2,2,0,2,46810,50000,1293,49168,0,0,0,0,0.00,0.00,0.00,0.00
2016-03-23 10:20:00,2,37163,14,0.03,2,2,0,2,7836,50000,15688,46520,0,71,28,0,0.00,0.20,0.06,0.00
2016-03-23 10:30:00,2,49985,0,0.00,2,2,0,2,49852,50000,44,50000,0,0,0,0,0.00,0.00,0.00,0.00
2016-03-23 10:40:00,2,49999,0,0.00,2,2,0,2,49991,50000,3,50000,0,0,0,0,0.00,0.00,0.00,0.00
2016-03-23 10:50:00,2,49815,0,0.00,2,2,0,2,48853,50000,375,50000,0,0,0,0,0.00,0.00,0.00,0.00
2016-03-23 11:00:00,2,47589,0,0.00,2,2,0,2,42333,50000,2607,48342,0,0,0,0,0.00,0.00,0.00,0.00
2016-03-23 11:10:00,2,41606,0,0.00,2,2,0,2,26341,50000,8058,43564,0,0,0,0,0.00,0.00,0.00,0.00
2016-03-23 11:20:00,2,44732,0,0.00,2,2,0,2,32517,50000,6376,47267,0,0,0,0,0.00,0.00,0.00,0.00
2016-03-23 11:30:00,2,50000,0,0.00,2,2,0,2,50000,50000,0,50000,0,0,0,0,0.00,0.00,0.00,0.00
2016-03-23 11:40:00,2,49450,0,0.00,2,2,0,2,47166,50000,863,50000,0,0,0,0,0.00,0.00,0.00,0.00
2016-03-23 11:50:00,2,21957,0,0.00,2,2,0,2,6851,49356,16304,12324,0,0,0,0,0.00,0.00,0.00,0.00
2016-03-23 12:00:00,2,15744,0,0.00,2,2,0,2,8912,30069,6971,13566,0,0,0,0,0.00,0.00,0.00,0.00
2016-03-23 12:10:00,2,43338,0,0.00,2,2,0,2,29699,50000,7417,46255,0,0,0,0,0.00,0.00,0.00,0.00
2016-03-23 12:20:00,2,50000,0,0.00,2,2,0,2,50000,50000,0,50000,0,0,0,0,0.00,0.00,0.00,0.00
2016-03-23 12:30:00,2,50000,0,0.00,2,2,0,2,50000,50000,0,50000,0,0,0,0,0.00,0.00,0.00,0.00
2016-03-23 12:40:00,2,50000,0,0.00,2,2,0,2,50000,50000,0,50000,0,0,0,0,0.00,0.00,0.00,0.00
2016-03-23 12:50:00,2,49979,0,0.00,2,2,0,2,49791,50000,63,50000,0,0,0,0,0.00,0.00,0.00,0.00
2016-03-23 13:00:00,2,49146,0,0.00,2,2,0,2,46112,50000,1480,50000,0,0,0,0,0.00,0.00,0.00,0.00
2016-03-23 13:10:00,2,44863,0,0.00,2,2,0,2,38769,50000,4602,46788,0,0,0,0,0.00,0.00,0.00,0.00
2016-03-23 13:20:00,2,46585,0,0.00,2,2,0,2,34819,50000,5150,50000,0,0,0,0,0.00,0.00,0.00,0.00
2016-03-23 13:30:00,2,49707,0,0.00,2,2,0,2,47242,50000,823,50000,0,0,0,0,0.00,0.00,0.00,0.00
2016-03-23 13:40:00,2,49883,0,0.00,2,2,0,2,48827,50000,352,50000,0,0,0,0,0.00,0.00,0.00,0.00
2016-03-23 13:50:00,2,49474,0,0.00,2,2,0,2,46010,50000,1215,50000,0,0,0,0,0.00,0.00,0.00,0.00
2016-03-23 14:00:00,2,49711,0,0.00,2,2,0,2,47301,50000,805,50000,0,0,0,0,0.00,0.00,0.00,0.00
2016-03-23 14:10:00,2,50000,0,0.00,2,2,0,2,50000,50000,0,50000,0,0,0,0,0.00,0.00,0.00,0.00
2016-03-23 14:20:00,2,49817,0,0.00,2,2,0,2,48173,50000,548,50000,0,0,0,0,0.00,0.00,0.00,0.00
2016-03-23 14:30:00,2,50000,0,0.00,2,2,0,2,50000,50000,0,50000,0,0,0,0,0.00,0.00,0.00,0.00
2016-03-23 14:40:00,2,33426,0,0.00,2,2,0,2,10483,50000,17378,41668,0,0,0,0,0.00,0.00,0.00,0.00
2016-03-23 14:50:00,2,11553,0,0.00,2,2,0,2,5314,20868,4181,11040,0,0,0,0,0.00,0.00,0.00,0.00
2016-03-23 15:00:00,2,42110,0,0.00,2,2,0,2,29497,50000,7518,45350,0,0,0,0,0.00,0.00,0.00,0.00
2016-03-23 15:10:00,2,36141,0,0.00,2,2,0,2,24670,46369,5498,35710,0,0,0,0,0.00,0.00,0.00,0.00
2016-03-23 15:20:00,2,21217,0,0.00,2,2,0,2,15416,29225,4616,19812,0,0,0,0,0.00,0.00,0.00,0.00
2016-03-23 15:30:00,2,20773,0,0.00,2,2,0,2,14378,30441,4946,21156,0,0,0,0,0.00,0.00,0.00,0.00
2016-03-23 15:40:00,2,13612,0,0.00,2,2,0,2,7883,17172,2409,14034,0,0,0,0,0.00,0.00,0.00,0.00
2016-03-23 15:50:00,2,13576,0,0.00,2,2,0,2,10622,16194,1649,14064,0,0,0,0,0.00,0.00,0.00,0.00
2016-03-23 16:00:00,2,15110,8,0.23,2,2,0,2,4947,22383,5974,16702,0,41,16,0,0.00,1.90,0.57,0.00
2016-03-23 16:10:00,2,1280,65,5.04,2,2,0,2,804,2699,543,1124,41,71,12,71,0.75,8.35,2.33,5.10
2016-03-23 16:20:00,2,2374,41,0.30,2,2,0,2,1483,3055,439,2258,10,71,19,41,0.00,1.05,0.31,0.20
2016-03-23 16:30:00,2,2200,49,1.33,2,2,0,2,1663,2641,293,2228,40,54,6,54,0.35,2.50,0.85,1.10
2016-03-23 16:40:00,2,2310,58,1.52,2,2,0,2,1835,3121,329,2258,54,64,5,54,0.30,3.60,1.06,1.38
2016-03-23 16:50:00,2,2920,30,1.14,2,2,0,2,1972,5592,1075,2458,0,54,19,41,0.00,2.35,0.99,1.35
2016-03-23 17:00:00,2,3892,26,0.23,2,2,0,2,2354,6869,1272,3508,10,41,16,26,0.00,1.35,0.40,0.05
2016-03-23 17:10:00,2,3366,54,0.68,2,2,0,2,1718,5183,1029,3499,41,64,8,54,0.00,2.35,0.64,0.55
2016-03-23 17:20:00,2,2427,54,0.48,2,2,0,2,1498,3535,563,2342,54,54,0,54,0.15,1.20,0.31,0.40
2016-03-23 17:30:00,2,1554,54,1.40,2,2,0,2,1054,2182,333,1518,54,54,0,54,0.15,4.65,1.28,1.00
2016-03-23 17:40:00,2,1098,46,3.00,2,2,0,2,650,2422,476,952,41,54,6,41,0.95,4.90,1.34,3.38
2016-03-23 17:50:00,2,4644,41,0.20,2,2,0,2,2982,8935,2007,3567,41,41,0,41,0.00,0.55,0.19,0.12
2016-03-23 18:00:00,2,4299,19,0.04,2,2,0,2,2753,7546,1419,3718,10,41,14,10,0.00,0.30,0.09,0.00
2016-03-23 18:10:00,2,2610,51,1.15,2,2,0,2,870,6115,1870,1591,41,54,5,54,0.00,2.65,0.88,1.38
2016-03-23 18:20:00,2,1926,48,0.40,2,2,0,2,1407,3309,559,1730,10,71,22,54,0.00,1.25,0.34,0.40
2016-03-23 18:30:00,2,6432,60,0.15,2,2,0,2,1764,14963,3718,6330,10,77,19,62,0.00,0.70,0.24,0.03
2016-03-23 18:40:00,2,3964,59,0.15,2,2,0,2,2190,6618,1370,3663,0,77,22,62,0.00,0.40,0.13,0.10
2016-03-23 18:50:00,2,5529,62,0.08,2,2,0,2,2565,11437,2590,4792,54,77,10,54,0.00,0.30,0.09,0.05
2016-03-23 19:00:00,2,10430,10,0.00,2,2,0,2,3214,17887,4546,8644,10,10,0,10,0.00,0.00,0.00,0.00
2016-03-23 19:10:00,2,21320,4,0.00,2,2,0,2,8738,47004,12476,16815,0,10,5,0,0.00,0.00,0.00,0.00
2016-03-23 19:20:00,2,46788,0,0.00,2,2,0,2,41848,50000,3079,47005,0,0,0,0,0.00,0.00,0.00,0.00
2016-03-23 19:30:00,2,34238,0,0.00,2,2,0,2,15142,50000,15044,36282,0,0,0,0,0.00,0.00,0.00,0.00
2016-03-23 19:40:00,2,15544,0,0.00,2,2,0,2,6397,26862,6540,13432,0,0,0,0,0.00,0.00,0.00,0.00
2016-03-23 19:50:00,2,21890,0,0.00,2,2,0,2,10191,34748,8487,22298,0,0,0,0,0.00,0.00,0.00,0.00
2016-03-23 20:00:00,2,13049,0,0.00,2,2,0,2,6765,27126,5986,11292,0,0,0,0,0.00,0.00,0.00,0.00
2016-03-23 20:10:00,2,34435,0,0.00,2,2,0,2,12736,45048,10167,38878,0,0,0,0,0.00,0.00,0.00,0.00
2016-03-23 20:20:00,2,40387,0,0.00,2,2,0,2,27598,50000,7327,40700,0,0,0,0,0.00,0.00,0.00,0.00
2016-03-23 20:30:00,2,49400,0,0.00,2,2,0,2,45410,50000,1395,50000,0,0,0,0,0.00,0.00,0.00,0.00
2016-03-23 20:40:00,2,20240,0,0.00,2,2,0,2,5998,39918,11418,22018,0,0,0,0,0.00,0.00,0.00,0.00
2016-03-23 20:50:00,2,27587,0,0.00,2,2,0,2,21472,32730,3965,27654,0,0,0,0,0.00,0.00,0.00,0.00
2016-03-23 21:00:00,2,13403,0,0.00,2,2,0,2,6887,28242,6107,10753,0,0,0,0,0.00,0.00,0.00,0.00
2016-03-23 21:10:00,2,38197,0,0.00,2,2,0,2,21992,50000,8147,40744,0,0,0,0,0.00,0.00,0.00,0.00
2016-03-23 21:20:00,2,12195,0,0.00,2,2,0,2,7944,19727,3404,10508,0,0,0,0,0.00,0.00,0.00,0.00
2016-03-23 21:30:00,2,8767,6,0.00,2,2,0,2,6061,13894,2827,7398,0,10,5,10,0.00,0.00,0.00,0.00
2016-03-23 21:40:00,2,6812,10,0.00,2,2,0,2,4257,9571,1738,6920,10,10,0,10,0.00,0.00,0.00,0.00
2016-03-23 21:50:00,2,6055,10,0.00,2,2,0,2,3732,7924,1078,5966,10,10,0,10,0.00,0.00,0.00,0.00
2016-03-23 22:00:00,2,9364,10,0.00,2,2,0,2,5484,12091,2154,10122,10,10,0,10,0.00,0.00,0.00,0.00
2016-03-23 22:10:00,2,6875,10,0.00,2,2,0,2,4014,13276,2599,6013,10,10,0,10,0.00,0.00,0.00,0.00
2016-03-23 22:20:00,2,7916,10,0.00,2,2,0,2,2768,17589,4763,6910,10,10,0,10,0.00,0.00,0.00,0.00
2016-03-23 22:30:00,2,10154,7,0.00,2,2,0,2,6281,12446,1804,10558,0,10,5,10,0.00,0.00,0.00,0.00
2016-03-23 22:40:00,2,15458,0,0.00,2,2,0,2,7552,28368,5378,13732,0,0,0,0,0.00,0.00,0.00,0.00
2016-03-23 22:50:00,2,11736,0,0.00,2,2,0,2,9334,15899,1811,11336,0,0,0,0,0.00,0.00,0.00,0.00
2016-03-23 23:00:00,2,22274,0,0.00,2,2,0,2,11960,41618,9963,18567,0,0,0,0,0.00,0.00,0.00,0.00
2016-03-23 23:10:00,2,45804,0,0.00,2,2,0,2,39027,49762,3503,46448,0,0,0,0,0.00,0.00,0.00,0.00
2016-03-23 23:20:00,2,40154,0,0.00,2,2,0,2,26173,50000,7975,40418,0,0,0,0,0.00,0.00,0.00,0.00
2016-03-23 23:30:00,2,35550,0,0.00,2,2,0,2,23793,49929,8611,35308,0,0,0,0,0.00,0.00,0.00,0.00
2016-03-23 23:40:00,2,33683,0,0.00,2,2,0,2,24851,47003,6890,34562,0,0,0,0,0.00,0.00,0.00,0.00
2016-03-23 23:50:00,2,30915,0,0.00,2,2,0,2,19542,49426,10018,26175,0,0,0,0,0.00,0.00,0.00,0.00
